| time (UTC) | temp C | wind direction | speed KPH | gust KPH | rain 1hr cm | rain 24hr cm | rain mn cm | humidity % | barometer mb |
| 20260505153013 | 2 | 119 | 4.8 | 11.3 | 0.00 | 0.08 | 0.03 | 90 | 1013.6 |
| 20260505152905 | 3 | 141 | 6.4 | 9.7 | 0.00 | 0.08 | 0.03 | 90 | 1013.1 |
| 20260505152405 | 3 | 101 | 8.0 | 12.9 | 0.00 | 0.08 | 0.03 | 89 | 1013.1 |
| 20260505151904 | 3 | 156 | 6.4 | 12.9 | 0.00 | 0.08 | 0.03 | 88 | 1013.1 |
| 20260505151517 | 3 | 153 | 6.4 | 12.9 | 0.00 | 0.08 | 0.03 | 88 | 1013.6 |
| 20260505151406 | 3 | 148 | 4.8 | 9.7 | 0.00 | 0.08 | 0.03 | 89 | 1013.1 |
| 20260505150900 | 3 | 183 | 6.4 | 14.5 | 0.00 | 0.08 | 0.03 | 88 | 1013.1 |
| 20260505150400 | 3 | 150 | 6.4 | 14.5 | 0.00 | 0.08 | 0.03 | 88 | 1013.1 |
| 20260505124857 | 4 | 109 | 6.4 | 12.9 | 0.00 | 0.08 | 0.03 | 87 | 1012.1 |
| 20260505124521 | 3 | 127 | 6.4 | 14.5 | 0.00 | 0.08 | 0.03 | 87 | 1012.6 |
| 20260505123857 | 4 | 162 | 6.4 | 11.3 | 0.00 | 0.08 | 0.03 | 87 | 1012.1 |
| 20260505123354 | 4 | 69 | 6.4 | 11.3 | 0.00 | 0.08 | 0.03 | 87 | 1012.1 |
| 20260505123025 | 3 | 74 | 8.0 | 12.9 | 0.00 | 0.08 | 0.03 | 85 | 1012.5 |
| 20260505122856 | 4 | 98 | 4.8 | 9.7 | 0.00 | 0.08 | 0.03 | 86 | 1012.1 |
| 20260505122354 | 4 | 102 | 6.4 | 9.7 | 0.00 | 0.08 | 0.03 | 85 | 1011.9 |
| 20260505121853 | 4 | 77 | 4.8 | 9.7 | 0.00 | 0.08 | 0.03 | 84 | 1011.8 |
| 20260505121512 | 4 | 50 | 4.8 | 8.0 | 0.00 | 0.08 | 0.03 | 84 | 1012.2 |
| 20260505121352 | 4 | 98 | 3.2 | 6.4 | 0.00 | 0.08 | 0.03 | 85 | 1011.6 |
| 20260505120850 | 4 | 80 | 3.2 | 6.4 | 0.00 | 0.08 | 0.03 | 84 | 1011.6 |
| 20260505120351 | 4 | 94 | 3.2 | 6.4 | 0.00 | 0.08 | 0.03 | 84 | 1011.6 |
| 20260505120015 | 4 | 76 | 3.2 | 6.4 | 0.00 | 0.08 | 0.03 | 83 | 1012.0 |
| 20260505115845 | 5 | 105 | 3.2 | 8.0 | 0.00 | 0.08 | 0.03 | 83 | 1011.5 |
| 20260505114833 | 5 | 94 | 4.8 | 9.7 | 0.00 | 0.08 | 0.03 | 82 | 1011.5 |
| 20260505114518 | 5 | 123 | 4.8 | 11.3 | 0.00 | 0.08 | 0.03 | 82 | 1012.0 |
| 20260505114327 | 5 | 115 | 3.2 | 9.7 | 0.00 | 0.08 | 0.03 | 82 | 1011.4 |
| 20260505113821 | 5 | 78 | 1.6 | 6.4 | 0.00 | 0.08 | 0.03 | 83 | 1011.5 |
| 20260505113315 | 5 | 104 | 1.6 | 4.8 | 0.00 | 0.08 | 0.03 | 84 | 1011.4 |
| 20260505113022 | 5 | 110 | 0.0 | 4.8 | 0.00 | 0.08 | 0.03 | 84 | 1011.8 |
| 20260505112810 | 5 | 107 | 1.6 | 4.8 | 0.00 | 0.08 | 0.03 | 84 | 1011.3 |
| 20260505112304 | 5 | 111 | 1.6 | 4.8 | 0.00 | 0.08 | 0.03 | 83 | 1011.3 |
| 20260505111757 | 5 | 148 | 0.0 | 4.8 | 0.00 | 0.08 | 0.03 | 84 | 1011.3 |
| 20260505111534 | 5 | 150 | 0.0 | 6.4 | 0.00 | 0.08 | 0.03 | 84 | 1011.6 |
| 20260505111250 | 5 | 156 | 0.0 | 4.8 | 0.00 | 0.08 | 0.03 | 86 | 1011.3 |
| 20260505110750 | 5 | 137 | 0.0 | 4.8 | 0.00 | 0.08 | 0.03 | 87 | 1011.4 |
| 20260505101748 | 5 | 165 | 0.0 | 1.6 | 0.00 | 0.08 | 0.03 | 87 | 1011.3 |
| 20260505101524 | 4 | 165 | 0.0 | 1.6 | 0.00 | 0.08 | 0.03 | 87 | 1011.7 |
| 20260505101247 | 5 | 165 | 0.0 | 1.6 | 0.00 | 0.08 | 0.03 | 87 | 1011.4 |
| 20260505100746 | 5 | 165 | 0.0 | 3.2 | 0.00 | 0.08 | 0.03 | 87 | 1011.3 |
| 20260505100245 | 5 | 165 | 0.0 | 3.2 | 0.00 | 0.08 | 0.03 | 87 | 1011.1 |
| 20260505100029 | 5 | 165 | 0.0 | 3.2 | 0.00 | 0.08 | 0.03 | 86 | 1011.6 |
| 20260505095746 | 5 | 165 | 0.0 | 3.2 | 0.00 | 0.08 | 0.03 | 86 | 1011.1 |
| 20260505095244 | 5 | 165 | 1.6 | 3.2 | 0.00 | 0.08 | 0.03 | 86 | 1011.0 |
| 20260505094745 | 5 | 164 | 1.6 | 4.8 | 0.00 | 0.08 | 0.03 | 86 | 1011.1 |
| 20260505094515 | 5 | 165 | 0.0 | 6.4 | 0.00 | 0.08 | 0.03 | 85 | 1011.7 |
| 20260505094238 | 5 | 164 | 1.6 | 4.8 | 0.00 | 0.08 | 0.03 | 86 | 1011.1 |
| 20260505093226 | 5 | 132 | 0.0 | 3.2 | 0.00 | 0.08 | 0.03 | 84 | 1010.9 |
| 20260505093018 | 5 | 42 | 0.0 | 0.0 | 0.00 | 0.08 | 0.03 | 83 | 1011.3 |
| 20260505092720 | 5 | 14 | 0.0 | 0.0 | 0.00 | 0.08 | 0.03 | 84 | 1010.8 |
| 20260505092214 | 5 | 14 | 0.0 | 0.0 | 0.00 | 0.08 | 0.03 | 83 | 1011.0 |
| 20260505091524 | 5 | 21 | 0.0 | 1.6 | 0.00 | 0.08 | 0.03 | 82 | 1011.6 |
| 20260505091202 | 6 | 14 | 0.0 | 4.8 | 0.00 | 0.08 | 0.03 | 82 | 1011.0 |
| 20260505090656 | 6 | 14 | 0.0 | 4.8 | 0.00 | 0.08 | 0.03 | 82 | 1010.9 |
| 20260505090151 | 6 | 355 | 0.0 | 3.2 | 0.00 | 0.08 | 0.03 | 83 | 1011.0 |
| 20260505090028 | 6 | 360 | 0.0 | 4.8 | 0.00 | 0.08 | 0.03 | 82 | 1011.5 |
| 20260505085644 | 6 | 0 | 0.0 | 4.8 | 0.00 | 0.08 | 0.03 | 83 | 1011.3 |
| 20260505085140 | 6 | 335 | 0.0 | 4.8 | 0.00 | 0.08 | 0.03 | 84 | 1011.4 |
| 20260505084632 | 6 | 326 | 0.0 | 4.8 | 0.00 | 0.08 | 0.03 | 84 | 1011.5 |
| 20260505084528 | 6 | 333 | 0.0 | 4.8 | 0.00 | 0.08 | 0.03 | 83 | 1012.1 |
| 20260505084126 | 6 | 29 | 0.0 | 4.8 | 0.00 | 0.08 | 0.03 | 84 | 1011.5 |
| 20260505083115 | 6 | 44 | 0.0 | 3.2 | 0.00 | 0.08 | 0.03 | 82 | 1011.6 |
| 20260505083017 | 6 | 22 | 0.0 | 1.6 | 0.00 | 0.08 | 0.03 | 81 | 1012.1 |
| 20260505082608 | 6 | 11 | 0.0 | 3.2 | 0.00 | 0.08 | 0.03 | 81 | 1011.8 |
| 20260505082102 | 6 | 11 | 0.0 | 3.2 | 0.00 | 0.08 | 0.03 | 81 | 1011.9 |
| 20260505081557 | 6 | 359 | 0.0 | 3.2 | 0.00 | 0.08 | 0.03 | 82 | 1012.0 |
| 20260505081529 | 6 | 355 | 0.0 | 3.2 | 0.00 | 0.08 | 0.03 | 82 | 1012.4 |
| 20260505081050 | 6 | 359 | 0.0 | 3.2 | 0.00 | 0.08 | 0.03 | 83 | 1011.9 |
| 20260505080038 | 6 | 359 | 0.0 | 3.2 | 0.00 | 0.08 | 0.03 | 82 | 1011.9 |
| 20260505080024 | 6 | 346 | 0.0 | 1.6 | 0.00 | 0.08 | 0.03 | 82 | 1012.3 |
| 20260505075026 | 6 | 338 | 0.0 | 1.6 | 0.00 | 0.08 | 0.03 | 83 | 1011.9 |
| 20260505074526 | 6 | 329 | 0.0 | 4.8 | 0.00 | 0.08 | 0.03 | 82 | 1012.4 |
| 20260505074520 | 6 | 335 | 0.0 | 3.2 | 0.00 | 0.08 | 0.03 | 83 | 1011.9 |
| 20260505074015 | 6 | 322 | 1.6 | 8.0 | 0.00 | 0.08 | 0.03 | 83 | 1011.9 |
| 20260505073509 | 7 | 306 | 1.6 | 8.0 | 0.00 | 0.08 | 0.03 | 83 | 1012.0 |
| 20260505073041 | 6 | 336 | 0.0 | 8.0 | 0.00 | 0.08 | 0.03 | 83 | 1012.5 |
| 20260505073002 | 7 | 342 | 1.6 | 8.0 | 0.00 | 0.08 | 0.03 | 83 | 1012.0 |
| 20260505072456 | 7 | 308 | 1.6 | 8.0 | 0.00 | 0.08 | 0.03 | 84 | 1012.0 |
| 20260505071539 | 6 | 329 | 1.6 | 6.4 | 0.00 | 0.08 | 0.03 | 83 | 1012.5 |
| 20260505071445 | 7 | 342 | 1.6 | 6.4 | 0.00 | 0.08 | 0.03 | 84 | 1012.0 |
| 20260505070938 | 7 | 353 | 0.0 | 4.8 | 0.03 | 0.08 | 0.03 | 85 | 1012.0 |
| 20260505070432 | 7 | 341 | 0.0 | 3.2 | 0.03 | 0.08 | 0.03 | 84 | 1012.1 |
| 20260505070020 | 6 | 335 | 0.0 | 6.4 | 0.03 | 0.08 | 0.03 | 84 | 1012.7 |
| 20260505065928 | 7 | 341 | 1.6 | 6.4 | 0.03 | 0.08 | 0.03 | 84 | 1012.1 |
| 20260505065428 | 7 | 345 | 0.0 | 6.4 | 0.03 | 0.08 | 0.03 | 85 | 1012.1 |
| 20260505064526 | 6 | 5 | 0.0 | 1.6 | 0.03 | 0.08 | 0.03 | 85 | 1012.6 |
| 20260505064430 | 7 | 1 | 0.0 | 1.6 | 0.03 | 0.08 | 0.03 | 85 | 1012.0 |
| 20260505063928 | 7 | 335 | 0.0 | 1.6 | 0.03 | 0.08 | 0.03 | 85 | 1012.0 |
| 20260505063428 | 7 | 352 | 0.0 | 3.2 | 0.03 | 0.08 | 0.03 | 85 | 1012.0 |
| 20260505063028 | 6 | 336 | 0.0 | 6.4 | 0.03 | 0.08 | 0.03 | 84 | 1012.7 |
| 20260505062928 | 7 | 342 | 0.0 | 6.4 | 0.03 | 0.08 | 0.03 | 84 | 1012.1 |
| 20260505062428 | 7 | 326 | 0.0 | 6.4 | 0.03 | 0.08 | 0.03 | 84 | 1012.0 |
| 20260505061930 | 7 | 23 | 0.0 | 4.8 | 0.03 | 0.08 | 0.03 | 83 | 1011.9 |
| 20260505061532 | 7 | 27 | 0.0 | 4.8 | 0.03 | 0.08 | 0.03 | 82 | 1012.6 |
| 20260505061428 | 7 | 1 | 1.6 | 8.0 | 0.03 | 0.08 | 0.03 | 82 | 1012.1 |
| 20260505060928 | 7 | 39 | 3.2 | 8.0 | 0.00 | 0.05 | 0.00 | 81 | 1012.2 |
| 20260505060428 | 7 | 347 | 1.6 | 8.0 | 0.00 | 0.05 | 0.00 | 80 | 1012.4 |
| 20260505060028 | 7 | 324 | 1.6 | 6.4 | 0.00 | 0.05 | 0.00 | 78 | 1013.0 |
| 20260505055929 | 7 | 306 | 1.6 | 6.4 | 0.00 | 0.05 | 0.05 | 78 | 1012.5 |
| 20260505055427 | 7 | 41 | 1.6 | 8.0 | 0.00 | 0.05 | 0.05 | 77 | 1012.5 |
| 20260505054533 | 7 | 349 | 0.0 | 9.7 | 0.00 | 0.05 | 0.05 | 76 | 1013.1 |
| 20260505054421 | 8 | 356 | 1.6 | 9.7 | 0.00 | 0.05 | 0.05 | 76 | 1012.6 |
| 20260505053916 | 8 | 337 | 1.6 | 6.4 | 0.00 | 0.05 | 0.05 | 75 | 1012.5 |
| 20260505053410 | 8 | 343 | 1.6 | 6.4 | 0.00 | 0.05 | 0.05 | 75 | 1012.4 |
| 20260505053034 | 8 | 333 | 0.0 | 6.4 | 0.00 | 0.05 | 0.05 | 74 | 1013.0 |
| 20260505052904 | 8 | 350 | 1.6 | 6.4 | 0.00 | 0.05 | 0.05 | 74 | 1012.5 |
| 20260505051851 | 8 | 349 | 3.2 | 8.0 | 0.00 | 0.05 | 0.05 | 72 | 1012.5 |
| 20260505051536 | 7 | 331 | 1.6 | 8.0 | 0.00 | 0.05 | 0.05 | 71 | 1013.0 |
| 20260505051346 | 8 | 334 | 1.6 | 8.0 | 0.00 | 0.05 | 0.05 | 72 | 1012.5 |
| 20260505050841 | 8 | 359 | 1.6 | 8.0 | 0.00 | 0.05 | 0.05 | 73 | 1012.5 |
| 20260505050334 | 8 | 25 | 0.0 | 6.4 | 0.00 | 0.05 | 0.05 | 74 | 1012.4 |
| 20260505041740 | 8 | 236 | 0.0 | 3.2 | 0.00 | 0.05 | 0.05 | 73 | 1011.9 |
| 20260505041525 | 8 | 342 | 0.0 | 3.2 | 0.00 | 0.05 | 0.05 | 71 | 1012.4 |
| 20260505041234 | 8 | 348 | 0.0 | 3.2 | 0.00 | 0.05 | 0.05 | 71 | 1011.5 |
| 20260505040728 | 8 | 342 | 0.0 | 6.4 | 0.00 | 0.05 | 0.05 | 71 | 1011.4 |
| 20260505040223 | 8 | 329 | 1.6 | 6.4 | 0.00 | 0.05 | 0.05 | 71 | 1011.3 |
| 20260505040021 | 8 | 319 | 0.0 | 6.4 | 0.00 | 0.05 | 0.05 | 70 | 1011.9 |
| 20260505035716 | 8 | 352 | 1.6 | 6.4 | 0.00 | 0.05 | 0.05 | 71 | 1011.3 |
| 20260505035210 | 8 | 340 | 1.6 | 8.0 | 0.00 | 0.05 | 0.05 | 71 | 1011.4 |
| 20260505034705 | 8 | 342 | 3.2 | 9.7 | 0.00 | 0.05 | 0.05 | 71 | 1011.4 |
| 20260505034519 | 8 | 346 | 0.0 | 12.9 | 0.00 | 0.05 | 0.05 | 70 | 1012.2 |
| 20260505034202 | 8 | 48 | 3.2 | 11.3 | 0.00 | 0.05 | 0.05 | 70 | 1011.5 |
| 20260505033702 | 8 | 335 | 3.2 | 11.3 | 0.00 | 0.05 | 0.05 | 70 | 1011.5 |
| 20260505033202 | 8 | 311 | 3.2 | 11.3 | 0.00 | 0.05 | 0.05 | 70 | 1011.4 |
| 20260505033007 | 8 | 352 | 0.0 | 12.9 | 0.00 | 0.05 | 0.05 | 70 | 1012.2 |
| 20260505032701 | 8 | 333 | 3.2 | 11.3 | 0.00 | 0.05 | 0.05 | 69 | 1011.6 |
| 20260505032201 | 8 | 332 | 3.2 | 9.7 | 0.00 | 0.05 | 0.05 | 70 | 1011.4 |
| 20260505031702 | 8 | 319 | 1.6 | 8.0 | 0.00 | 0.05 | 0.05 | 71 | 1011.1 |
| 20260505031505 | 8 | 350 | 1.6 | 14.5 | 0.00 | 0.05 | 0.05 | 71 | 1011.7 |
| 20260505031201 | 8 | 53 | 1.6 | 12.9 | 0.00 | 0.05 | 0.05 | 72 | 1010.9 |
| 20260505030701 | 8 | 306 | 1.6 | 12.9 | 0.00 | 0.05 | 0.05 | 71 | 1010.9 |
| 20260505030022 | 8 | 319 | 1.6 | 14.5 | 0.00 | 0.05 | 0.05 | 71 | 1011.4 |
| 20260505025202 | 8 | 320 | 4.8 | 11.3 | 0.00 | 0.05 | 0.05 | 71 | 1011.0 |
| 20260505024513 | 8 | 331 | 3.2 | 14.5 | 0.03 | 0.05 | 0.05 | 70 | 1011.7 |
| 20260505024203 | 8 | 340 | 3.2 | 12.9 | 0.03 | 0.05 | 0.05 | 71 | 1011.1 |
| 20260505023159 | 8 | 334 | 3.2 | 12.9 | 0.05 | 0.05 | 0.05 | 70 | 1011.0 |
| 20260505023020 | 8 | 346 | 3.2 | 14.5 | 0.05 | 0.05 | 0.05 | 69 | 1011.5 |
| 20260505022700 | 8 | 309 | 3.2 | 12.9 | 0.05 | 0.05 | 0.05 | 71 | 1011.0 |
| 20260505022200 | 8 | 359 | 4.8 | 14.5 | 0.05 | 0.05 | 0.05 | 70 | 1010.9 |
| 20260505021655 | 9 | 8 | 4.8 | 14.5 | 0.05 | 0.05 | 0.05 | 70 | 1010.9 |
| 20260505021504 | 8 | 304 | 4.8 | 16.1 | 0.05 | 0.05 | 0.05 | 68 | 1011.4 |
| 20260505021147 | 9 | 345 | 4.8 | 14.5 | 0.05 | 0.05 | 0.05 | 69 | 1010.9 |
| 20260505020642 | 9 | 359 | 4.8 | 19.3 | 0.05 | 0.05 | 0.05 | 69 | 1011.1 |
| 20260505020135 | 9 | 342 | 4.8 | 19.3 | 0.05 | 0.05 | 0.05 | 69 | 1011.4 |
| 20260505020008 | 9 | 337 | 4.8 | 20.9 | 0.05 | 0.05 | 0.05 | 69 | 1011.9 |
| 20260505015628 | 9 | 284 | 4.8 | 17.7 | 0.05 | 0.05 | 0.05 | 68 | 1011.3 |
| 20260505015122 | 10 | 359 | 4.8 | 17.7 | 0.05 | 0.05 | 0.05 | 67 | 1011.0 |
| 20260505014616 | 10 | 27 | 4.8 | 14.5 | 0.03 | 0.03 | 0.03 | 64 | 1010.8 |
| 20260505014512 | 10 | 355 | 4.8 | 20.9 | 0.03 | 0.03 | 0.03 | 64 | 1011.4 |
| 20260505014110 | 10 | 354 | 4.8 | 19.3 | 0.03 | 0.03 | 0.03 | 63 | 1010.9 |
| 20260505013058 | 10 | 331 | 3.2 | 11.3 | 0.00 | 0.00 | 0.00 | 63 | 1011.0 |
| 20260505013015 | 10 | 342 | 3.2 | 12.9 | 0.00 | 0.00 | 0.00 | 61 | 1011.5 |
| 20260505012552 | 10 | 326 | 4.8 | 9.7 | 0.00 | 0.00 | 0.00 | 60 | 1011.0 |
| 20260505012047 | 11 | 49 | 4.8 | 19.3 | 0.00 | 0.00 | 0.00 | 59 | 1010.9 |
| 20260505011540 | 12 | 46 | 4.8 | 19.3 | 0.00 | 0.00 | 0.00 | 54 | 1010.9 |
| 20260505011524 | 11 | 338 | 4.8 | 20.9 | 0.00 | 0.00 | 0.00 | 52 | 1011.5 |
| 20260505011034 | 12 | 302 | 6.4 | 25.7 | 0.00 | 0.00 | 0.00 | 50 | 1010.4 |
| 20260505010527 | 12 | 262 | 8.0 | 25.7 | 0.00 | 0.00 | 0.00 | 48 | 1010.2 |
| 20260505010022 | 13 | 53 | 6.4 | 19.3 | 0.00 | 0.00 | 0.00 | 42 | 1010.0 |
| 20260505010008 | 13 | 55 | 6.4 | 20.9 | 0.00 | 0.00 | 0.00 | 42 | 1010.7 |
| 20260505005516 | 13 | 314 | 6.4 | 17.7 | 0.00 | 0.00 | 0.00 | 41 | 1010.0 |
| 20260505005010 | 13 | 342 | 4.8 | 17.7 | 0.00 | 0.00 | 0.00 | 38 | 1009.9 |
| 20260505004509 | 14 | 30 | 6.4 | 19.3 | 0.00 | 0.00 | 0.00 | 37 | 1010.3 |
| 20260505004505 | 14 | 356 | 4.8 | 17.7 | 0.00 | 0.00 | 0.00 | 37 | 1009.7 |
| 20260505003452 | 14 | 348 | 3.2 | 9.7 | 0.00 | 0.00 | 0.00 | 35 | 1009.3 |
| 20260505003018 | 14 | 55 | 0.0 | 20.9 | 0.00 | 0.00 | 0.00 | 35 | 1009.7 |
| 20260505002946 | 14 | 337 | 4.8 | 19.3 | 0.00 | 0.00 | 0.00 | 36 | 1009.1 |
| 20260505002441 | 15 | 5 | 6.4 | 22.5 | 0.00 | 0.00 | 0.00 | 35 | 1009.2 |
| 20260505001935 | 15 | 335 | 6.4 | 22.5 | 0.00 | 0.00 | 0.00 | 35 | 1008.9 |
| 20260505001518 | 15 | 319 | 3.2 | 17.7 | 0.00 | 0.00 | 0.00 | 34 | 1009.4 |
| 20260505001428 | 15 | 33 | 4.8 | 16.1 | 0.00 | 0.00 | 0.00 | 35 | 1008.7 |
| 20260505000417 | 15 | 359 | 4.8 | 25.7 | 0.00 | 0.00 | 0.00 | 34 | 1008.5 |
| 20260505000021 | 16 | 5 | 6.4 | 27.4 | 0.00 | 0.00 | 0.00 | 32 | 1009.2 |
| 20260504235910 | 16 | 83 | 6.4 | 25.7 | 0.00 | 0.00 | 0.00 | 32 | 1008.6 |
| 20260504235404 | 16 | 22 | 4.8 | 19.3 | 0.00 | 0.00 | 0.00 | 32 | 1008.5 |
| 20260504234858 | 16 | 20 | 4.8 | 19.3 | 0.00 | 0.00 | 0.00 | 32 | 1008.5 |
| 20260504234509 | 16 | 330 | 6.4 | 20.9 | 0.00 | 0.00 | 0.00 | 31 | 1008.9 |
| 20260504234352 | 16 | 343 | 3.2 | 19.3 | 0.00 | 0.00 | 0.00 | 32 | 1008.3 |
| 20260504233340 | 16 | 32 | 3.2 | 6.4 | 0.00 | 0.00 | 0.00 | 34 | 1008.6 |
| 20260504233013 | 16 | 76 | 3.2 | 6.4 | 0.00 | 0.00 | 0.00 | 34 | 1009.2 |
| 20260504232328 | 16 | 51 | 1.6 | 4.8 | 0.00 | 0.00 | 0.00 | 36 | 1008.8 |
| 20260504231822 | 16 | 89 | 1.6 | 6.4 | 0.00 | 0.00 | 0.00 | 35 | 1008.6 |
| 20260504231520 | 16 | 93 | 1.6 | 6.4 | 0.00 | 0.00 | 0.00 | 33 | 1009.2 |
| 20260504231316 | 16 | 88 | 1.6 | 6.4 | 0.00 | 0.00 | 0.00 | 34 | 1008.6 |
| 20260504230026 | 16 | 209 | 4.8 | 16.1 | 0.00 | 0.00 | 0.00 | 37 | 1009.2 |
| 20260504225757 | 16 | 112 | 4.8 | 14.5 | 0.00 | 0.00 | 0.00 | 40 | 1008.7 |
| 20260504225252 | 15 | 254 | 6.4 | 17.7 | 0.00 | 0.00 | 0.00 | 39 | 1008.6 |
| 20260504224746 | 15 | 132 | 4.8 | 17.7 | 0.00 | 0.00 | 0.00 | 41 | 1008.7 |
| 20260504224523 | 15 | 182 | 4.8 | 16.1 | 0.00 | 0.00 | 0.00 | 40 | 1009.3 |
| 20260504223734 | 15 | 140 | 6.4 | 20.9 | 0.00 | 0.00 | 0.00 | 42 | 1008.9 |
| 20260504223228 | 15 | 58 | 6.4 | 20.9 | 0.00 | 0.00 | 0.00 | 43 | 1008.9 |
| 20260504223010 | 14 | 149 | 11.3 | 24.1 | 0.00 | 0.00 | 0.00 | 41 | 1009.6 |
| 20260504222722 | 14 | 264 | 6.4 | 20.9 | 0.00 | 0.00 | 0.00 | 44 | 1008.9 |
| 20260504222216 | 15 | 46 | 3.2 | 20.9 | 0.00 | 0.00 | 0.00 | 42 | 1009.3 |
| 20260504221521 | 14 | 150 | 1.6 | 12.9 | 0.00 | 0.00 | 0.00 | 46 | 1009.7 |
| 20260504221204 | 15 | 173 | 8.0 | 30.6 | 0.00 | 0.00 | 0.00 | 43 | 1009.1 |
| 20260504220658 | 15 | 194 | 8.0 | 30.6 | 0.00 | 0.00 | 0.00 | 41 | 1009.8 |
| 20260504220152 | 16 | 240 | 6.4 | 19.3 | 0.00 | 0.00 | 0.00 | 34 | 1009.6 |
| 20260504220022 | 16 | 263 | 1.6 | 27.4 | 0.00 | 0.00 | 0.00 | 31 | 1009.9 |
| 20260504215647 | 16 | 307 | 9.7 | 25.7 | 0.00 | 0.00 | 0.00 | 33 | 1009.4 |
| 20260504215143 | 17 | 297 | 9.7 | 25.7 | 0.00 | 0.00 | 0.00 | 28 | 1009.2 |
| 20260504214643 | 17 | 299 | 8.0 | 20.9 | 0.00 | 0.00 | 0.00 | 25 | 1008.7 |
| 20260504214521 | 17 | 305 | 8.0 | 22.5 | 0.00 | 0.00 | 0.00 | 24 | 1009.1 |
| 20260504214143 | 18 | 277 | 6.4 | 20.9 | 0.00 | 0.00 | 0.00 | 24 | 1008.3 |
| 20260504213028 | 18 | 30 | 1.6 | 12.9 | 0.00 | 0.00 | 0.00 | 22 | 1008.6 |
| 20260504212643 | 18 | 311 | 1.6 | 11.3 | 0.00 | 0.00 | 0.00 | 22 | 1007.8 |
| 20260504211643 | 19 | 247 | 1.6 | 4.8 | 0.00 | 0.00 | 0.00 | 19 | 1008.0 |
| 20260504211512 | 18 | 176 | 1.6 | 6.4 | 0.00 | 0.00 | 0.00 | 20 | 1008.5 |
| 20260504211144 | 19 | 149 | 1.6 | 6.4 | 0.00 | 0.00 | 0.00 | 22 | 1007.8 |
| 20260504210141 | 20 | 246 | 3.2 | 9.7 | 0.00 | 0.00 | 0.00 | 22 | 1008.0 |
| 20260504210018 | 19 | 249 | 1.6 | 11.3 | 0.00 | 0.00 | 0.00 | 19 | 1008.6 |
| 20260504205642 | 20 | 243 | 3.2 | 9.7 | 0.00 | 0.00 | 0.00 | 20 | 1008.0 |
| 20260504205142 | 20 | 330 | 3.2 | 9.7 | 0.00 | 0.00 | 0.00 | 19 | 1008.1 |
| 20260504204638 | 20 | 217 | 3.2 | 9.7 | 0.00 | 0.00 | 0.00 | 21 | 1008.2 |
| 20260504204526 | 20 | 194 | 3.2 | 9.7 | 0.00 | 0.00 | 0.00 | 21 | 1008.8 |
| 20260504204139 | 20 | 165 | 3.2 | 8.0 | 0.00 | 0.00 | 0.00 | 22 | 1008.2 |
| 20260504203639 | 20 | 158 | 3.2 | 8.0 | 0.00 | 0.00 | 0.00 | 23 | 1008.3 |
| 20260504203026 | 19 | 272 | 1.6 | 16.1 | 0.00 | 0.00 | 0.00 | 21 | 1009.2 |
| 20260504202133 | 19 | 286 | 4.8 | 14.5 | 0.00 | 0.00 | 0.00 | 20 | 1008.7 |
| 20260504201528 | 18 | 188 | 1.6 | 14.5 | 0.00 | 0.00 | 0.00 | 22 | 1009.2 |
| 20260504201121 | 18 | 340 | 4.8 | 16.1 | 0.00 | 0.00 | 0.00 | 20 | 1008.7 |
| 20260504200615 | 18 | 20 | 6.4 | 22.5 | 0.00 | 0.00 | 0.00 | 22 | 1008.6 |
| 20260504200029 | 18 | 337 | 8.0 | 29.0 | 0.00 | 0.00 | 0.00 | 20 | 1009.2 |
| 20260504195603 | 19 | 294 | 9.7 | 27.4 | 0.00 | 0.00 | 0.00 | 19 | 1008.8 |
| 20260504195057 | 20 | 261 | 4.8 | 20.9 | 0.00 | 0.00 | 0.00 | 18 | 1008.6 |
| 20260504194521 | 20 | 243 | 1.6 | 12.9 | 0.00 | 0.00 | 0.00 | 17 | 1009.1 |
| 20260504194050 | 20 | 127 | 4.8 | 11.3 | 0.00 | 0.00 | 0.00 | 18 | 1008.6 |
| 20260504193547 | 20 | 332 | 4.8 | 11.3 | 0.00 | 0.00 | 0.00 | 17 | 1008.6 |
| 20260504193047 | 20 | 264 | 4.8 | 16.1 | 0.00 | 0.00 | 0.00 | 18 | 1008.7 |
| 20260504193022 | 20 | 294 | 3.2 | 17.7 | 0.00 | 0.00 | 0.00 | 17 | 1009.2 |
| 20260504192045 | 21 | 206 | 4.8 | 11.3 | 0.00 | 0.00 | 0.00 | 17 | 1008.8 |
| 20260504191545 | 21 | 68 | 4.8 | 17.7 | 0.00 | 0.00 | 0.00 | 16 | 1008.9 |
| 20260504191538 | 21 | 140 | 6.4 | 19.3 | 0.00 | 0.00 | 0.00 | 16 | 1009.4 |
| 20260504191045 | 21 | 117 | 6.4 | 17.7 | 0.00 | 0.00 | 0.00 | 17 | 1009.1 |
| 20260504190543 | 21 | 262 | 6.4 | 16.1 | 0.00 | 0.00 | 0.00 | 17 | 1009.1 |
| 20260504190045 | 21 | 309 | 6.4 | 16.1 | 0.00 | 0.00 | 0.00 | 18 | 1009.2 |
| 20260504190027 | 21 | 262 | 3.2 | 17.7 | 0.00 | 0.00 | 0.00 | 17 | 1009.6 |
| 20260504185543 | 20 | 124 | 4.8 | 16.1 | 0.00 | 0.00 | 0.00 | 20 | 1009.2 |
| 20260504185043 | 20 | 333 | 3.2 | 11.3 | 0.00 | 0.00 | 0.00 | 17 | 1009.3 |
| 20260504184542 | 20 | 131 | 3.2 | 11.3 | 0.00 | 0.00 | 0.00 | 19 | 1009.3 |
| 20260504184516 | 20 | 125 | 3.2 | 11.3 | 0.00 | 0.00 | 0.00 | 19 | 1009.7 |
| 20260504184043 | 20 | 150 | 3.2 | 9.7 | 0.00 | 0.00 | 0.00 | 17 | 1009.6 |
| 20260504183044 | 21 | 311 | 4.8 | 16.1 | 0.00 | 0.00 | 0.00 | 18 | 1009.8 |
| 20260504183036 | 20 | 213 | 3.2 | 17.7 | 0.00 | 0.00 | 0.00 | 18 | 1010.2 |
| 20260504182539 | 21 | 250 | 6.4 | 14.5 | 0.00 | 0.00 | 0.00 | 19 | 1009.9 |
| 20260504182039 | 20 | 255 | 6.4 | 16.1 | 0.00 | 0.00 | 0.00 | 19 | 1010.0 |
| 20260504181540 | 20 | 221 | 4.8 | 16.1 | 0.00 | 0.00 | 0.00 | 19 | 1010.2 |
| 20260504181528 | 20 | 175 | 6.4 | 17.7 | 0.00 | 0.00 | 0.00 | 18 | 1010.5 |
| 20260504181039 | 20 | 232 | 1.6 | 9.7 | 0.00 | 0.00 | 0.00 | 19 | 1010.2 |
| 20260504180540 | 19 | 332 | 3.2 | 8.0 | 0.00 | 0.00 | 0.00 | 21 | 1010.0 |
| 20260504180038 | 18 | 167 | 4.8 | 14.5 | 0.00 | 0.00 | 0.00 | 21 | 1010.2 |
| 20260504180026 | 18 | 147 | 1.6 | 16.1 | 0.00 | 0.00 | 0.00 | 21 | 1010.7 |
| 20260504175540 | 18 | 283 | 8.0 | 17.7 | 0.00 | 0.00 | 0.00 | 18 | 1010.3 |
| 20260504175039 | 19 | 175 | 8.0 | 19.3 | 0.00 | 0.00 | 0.00 | 19 | 1010.3 |
| 20260504174539 | 18 | 177 | 6.4 | 19.3 | 0.00 | 0.00 | 0.00 | 22 | 1010.4 |
| 20260504174530 | 18 | 200 | 4.8 | 20.9 | 0.00 | 0.00 | 0.00 | 21 | 1010.9 |
| 20260504174040 | 19 | 242 | 8.0 | 20.9 | 0.00 | 0.00 | 0.00 | 21 | 1010.7 |
| 20260504173535 | 19 | 288 | 6.4 | 20.9 | 0.00 | 0.00 | 0.00 | 20 | 1010.4 |
| 20260504173035 | 20 | 201 | 4.8 | 12.9 | 0.00 | 0.00 | 0.00 | 21 | 1010.5 |
| 20260504173018 | 20 | 107 | 4.8 | 16.1 | 0.00 | 0.00 | 0.00 | 20 | 1011.0 |
| 20260504172536 | 20 | 261 | 6.4 | 17.7 | 0.00 | 0.00 | 0.00 | 19 | 1010.7 |
| 20260504172037 | 20 | 252 | 8.0 | 20.9 | 0.00 | 0.00 | 0.00 | 23 | 1010.8 |
| 20260504171524 | 19 | 231 | 9.7 | 22.5 | 0.00 | 0.00 | 0.00 | 20 | 1011.1 |
| 20260504171036 | 20 | 266 | 4.8 | 14.5 | 0.00 | 0.00 | 0.00 | 20 | 1010.9 |